Flag for U.S.A. Weather past 2 weeks in Burbank, California, U.S.A.

Now
65 °F

Clear.


Feels Like: 65 °F
Forecast: 63 / 86 °F
Wind: No wind

Location: Burbank-Glendale-Pasadena Airport

Current Time: Oct 24, 2014 at 1:31:05 AM

Latest Report: Oct 24, 2014 at 12:53 AM


Visibility: 10 mi

Pressure: 29.94 "Hg

Humidity: 45%

Dew point: 43 °F

Location of BurbankLocation

Historic Weather in Burbank — Graph

°F

Burbank temperature yesterday

Maximum temperature yesterday: 87 °F (at 1:53 PM)
Minimum temperature yesterday: 58 °F (at 5:53 AM)
Average temperature yesterday: 72 °F

Past Weeks' High & Low Weather Summary

 TemperatureHumidityPressure
High88 °F (Oct 22, 2:53 PM)97% (Oct 13, 7:53 AM)30.00 "Hg (Oct 13, 7:53 AM)
Low56 °F (Oct 18, 6:53 AM)16% (Oct 22, 2:53 PM)29.80 "Hg (Oct 18, 4:53 PM)
Average68 °F66%29.90 "Hg
* Reported Oct 8 11:53 PM — Oct 23 11:53 PM, Burbank, Weather by CustomWeather, © 2014

Note: Actual official high and low records may vary slightly from our data, if they occured in-between our weather recording intervals... More about our weather records

Advertising

Burbank weather history for previous 24 hours

 ConditionsComfort  
Time TempWeatherWind HumidityBarometerVisibility
11:53 PM
Oct 23
65 °FClear.No wind49%29.93 "Hg10 mi
10:53 PM68 °FClear.No wind40%29.93 "Hg10 mi
9:53 PM69 °FClear.3 mph44%29.92 "Hg10 mi
8:53 PM71 °FClear.No wind42%29.91 "Hg10 mi
7:53 PM76 °FClear.No wind43%29.90 "Hg10 mi
6:53 PM79 °FSunny.3 mph23%29.89 "Hg10 mi
5:53 PM83 °FSunny.3 mph19%29.88 "Hg10 mi
4:53 PM85 °FSunny.5 mph16%29.88 "Hg10 mi
3:53 PM85 °FSunny.6 mph23%29.88 "Hg10 mi
2:53 PM87 °FSunny.7 mph22%29.88 "Hg10 mi
1:53 PM87 °FSunny.6 mph24%29.90 "Hg10 mi
12:53 PM85 °FSunny.3 mph24%29.93 "Hg10 mi
11:53 AM83 °FSunny.5 mph27%29.96 "Hg10 mi
10:53 AM79 °FSunny.No wind30%29.97 "Hg10 mi
9:53 AM73 °FSunny.No wind37%29.97 "Hg10 mi
8:53 AM67 °FSunny.No wind45%29.97 "Hg10 mi
7:53 AM62 °FClear.No wind54%29.94 "Hg10 mi
6:53 AM58 °FClear.No wind62%29.93 "Hg10 mi
5:53 AM58 °FClear.No wind62%29.92 "Hg10 mi
4:53 AM60 °FClear.No wind58%29.91 "Hg10 mi
3:53 AM60 °FClear.No wind60%29.90 "Hg10 mi
2:53 AM62 °FClear.No wind56%29.92 "Hg10 mi
1:53 AM63 °FClear.No wind56%29.93 "Hg10 mi
Weather by CustomWeather, © 2014

See weather overviewHow to use our weather pages